COSMOS 2436 (723)

Last updated on Jan. 23, 2021, 7:31 a.m. UTC

1 32395U 07065C   21022.30128385  .00000046  00000-0  00000+0 0  9996
2 32395  64.5096 258.9669 0015955   3.2996 182.3963  2.13102900101713
UTC
Height (km)
Latitude
Longitude
Inclination
Orbital Period
UTC large
Height (km)
Speed (km/s)
/
Latitude / Longitude
Inclination (degrees)
Orbital Period (minutes)
Azimuth
Elevation
Range (km)
Doppler Factor
iOS Compass Heading
iOS Angle

Next 30 passes for location: Hong Kong

Rise time Rise Azimuth (degrees) Set time Set Azimuth (degrees) Duration Max altitude (degrees)

No matching passes for this satellites